Location: ??????????
(31.2156°N, 29.9553°E)
Time: 04:16:27
(UTC+00:00)

Delta 7925 Rocket - Pass Details

Date: 03 March 2021
Orbit: 645 x 1648 km, 26.3° (Epoch: 14 April)

Event Time Altitude Azimuth Distance (km) Brightness Sun altitude
Rises 17:50:20 0° 263° (W) 2,999 7.8 -24.4°
Reaches altitude 10° 17:52:48 10° 257° (WSW) 2,044 6.6 -24.9°
Enters shadow 17:56:51 44° 199° (SSW) 891 3.8 -25.7°
